EW8986 Villanueva Del Pardillo ES current weather conditions

sailwx.info

Wind from 210 at 0 knots gusting 4

Air temperature 8.3° C
Dewpoint 3.0° C

Last reported at 2020-Jan-22 12:53 UTC.
Time now 2020-Jan-22 13:28 UTC

Location: N 40°35' W 003°52'.
View on Google Maps.

See reports from other nearby stations

  
Tides and Currents Weather Stations Pressure Air Temp Water Temp Dewpoint Dewpoint Depression Visibility Wind Speed Wind Dir Waves Ship Positions
date/time (UTC)wind fromknots sea level pressurealtimeterstation pressurevisibilityair tempwater tempwave heightnotes
2020-Jan-22 13:02 296 8.3
2020-Jan-22 12:53 210 0 gusting 4 8.3
2020-Jan-22 12:44 157 8.3
2020-Jan-22 12:35 095 8.3
2020-Jan-22 12:26 192 0 gusting 0 8.3
2020-Jan-22 12:17 186 8.9
2020-Jan-22 12:08 8.3
2020-Jan-22 11:59 5.0
2020-Jan-22 11:50 5.0
2020-Jan-22 11:41 5.0
2020-Jan-22 11:32 5.0
2020-Jan-22 11:23 5.0
2020-Jan-22 11:14 5.0
2020-Jan-22 11:05 5.0
2020-Jan-22 10:56 5.0
2020-Jan-22 10:47 5.0
2020-Jan-22 10:38 5.0
2020-Jan-22 10:29 105 0 gusting 1 5.0
2020-Jan-22 10:20 105 5.0
2020-Jan-22 10:11 059 1 gusting 4 5.0
2020-Jan-22 10:02 053 0 gusting 4 5.0
2020-Jan-22 09:53 059 0 gusting 6 5.0
2020-Jan-22 09:44 058 5.0
2020-Jan-22 09:35 064 5.0
2020-Jan-22 09:26 082 5.0
2020-Jan-22 09:17 045 4.4
2020-Jan-22 09:08 045 4.4
2020-Jan-22 08:59 058 4.4
2020-Jan-22 08:50 058 4.4
2020-Jan-22 08:41 064 0 gusting 3 4.4
2020-Jan-22 08:32 129 4.4
2020-Jan-22 08:23 150 0 gusting 1 4.4
2020-Jan-22 08:14 103 0 gusting 1 4.4
2020-Jan-22 08:05 025 0 gusting 1 4.4
2020-Jan-22 07:56 062 0 gusting 2 4.4
2020-Jan-22 07:47 055 4.4
2020-Jan-22 07:38 101 0 gusting 3 4.4
2020-Jan-22 07:29 101 0 gusting 3 4.4
2020-Jan-22 07:20 4.4
2020-Jan-22 07:11 073 0 gusting 3 5.0
2020-Jan-22 07:02 068 0 gusting 3 5.0
2020-Jan-22 06:53 048 0 gusting 3 5.0
2020-Jan-22 06:44 078 0 gusting 3 5.0
2020-Jan-22 06:35 085 0 gusting 2 5.0
2020-Jan-22 06:26 082 1 gusting 2 5.0
2020-Jan-22 06:17 049 0 gusting 3 5.0
2020-Jan-22 06:08 044 0 gusting 1 5.0
2020-Jan-22 05:59 112 0 gusting 1 5.0
2020-Jan-22 05:50 085 0 gusting 2 5.0
2020-Jan-22 05:41 030 0 gusting 4 5.0
2020-Jan-22 05:32 032 0 gusting 4 5.0
2020-Jan-22 05:23 069 0 gusting 2 5.0
2020-Jan-22 05:14 057 0 gusting 1 5.0
2020-Jan-22 05:05 054 0 gusting 4 5.0
2020-Jan-22 04:56 072 0 gusting 5 4.4
2020-Jan-22 04:47 064 0 gusting 4 4.4
2020-Jan-22 04:38 069 0 gusting 2 4.4
2020-Jan-22 04:29 069 0 gusting 2 5.0
2020-Jan-22 04:20 061 0 gusting 6 5.0
2020-Jan-22 04:11 039 0 gusting 5 5.0
2020-Jan-22 04:02 248 0 gusting 4 5.0
2020-Jan-22 03:53 187 0 gusting 4 5.0
2020-Jan-22 03:44 100 0 gusting 4 5.0
2020-Jan-22 03:35 066 0 gusting 2 5.0
2020-Jan-22 03:26 055 0 gusting 3 5.0
2020-Jan-22 03:17 050 0 gusting 4 5.0
2020-Jan-22 03:08 022 0 gusting 4 5.6
2020-Jan-22 02:59 058 0 gusting 5 5.6
2020-Jan-22 02:50 087 0 gusting 6 5.6
2020-Jan-22 02:41 044 0 gusting 6 5.6
2020-Jan-22 02:32 056 0 gusting 6 5.6
2020-Jan-22 02:23 063 0 gusting 3 5.6
2020-Jan-22 02:14 054 0 gusting 1 5.6
2020-Jan-22 02:05 065 0 gusting 4 5.6
2020-Jan-22 01:56 060 0 gusting 5 5.6
2020-Jan-22 01:47 056 0 gusting 4 5.6
2020-Jan-22 01:38 143 5.6
2020-Jan-22 01:29 073 0 gusting 2 5.6
2020-Jan-22 01:20 040 0 gusting 4 5.6
2020-Jan-22 01:11 084 0 gusting 2 5.6
2020-Jan-22 01:02 040 0 gusting 4 5.6
2020-Jan-22 00:53 101 0 gusting 4 5.6
2020-Jan-22 00:44 092 0 gusting 4 5.6
2020-Jan-22 00:35 092 0 gusting 6 5.6
2020-Jan-22 00:26 100 0 gusting 2 5.6
2020-Jan-22 00:17 051 0 gusting 6 5.6
2020-Jan-22 00:08 036 0 gusting 6 5.6
2020-Jan-21 23:59 238 0 gusting 2 5.6
2020-Jan-21 23:50 057 0 gusting 3 5.6
2020-Jan-21 23:41 058 0 gusting 3 5.6
2020-Jan-21 23:32 066 0 gusting 5 5.6
2020-Jan-21 23:23 071 0 gusting 5 5.6
2020-Jan-21 23:14 075 0 gusting 4 5.6
2020-Jan-21 23:05 091 0 gusting 4 5.6
2020-Jan-21 22:56 060 0 gusting 3 5.6
2020-Jan-21 22:47 052 0 gusting 4 5.6
2020-Jan-21 22:38 295 0 gusting 1 5.6
2020-Jan-21 22:29 5.6
2020-Jan-21 22:20 053 0 gusting 3 5.6
2020-Jan-21 22:11 062 0 gusting 3 5.6
2020-Jan-21 22:02 5.6
2020-Jan-21 21:53 063 0 gusting 1 5.6
2020-Jan-21 21:44 051 0 gusting 1 5.6
2020-Jan-21 21:35 068 0 gusting 6 5.6
2020-Jan-21 21:26 089 0 gusting 4 5.6
2020-Jan-21 21:17 016 1 gusting 2 5.6
2020-Jan-21 21:08 014 1 gusting 4 5.6
2020-Jan-21 20:59 050 1 gusting 5 5.6
2020-Jan-21 20:50 049 1 gusting 6 5.6
2020-Jan-21 20:41 052 1 gusting 6 5.6
2020-Jan-21 20:32 046 1 gusting 6 5.6
2020-Jan-21 20:23 119 1 gusting 6 5.6
2020-Jan-21 20:14 109 1 gusting 8 5.6
2020-Jan-21 20:05 081 1 gusting 6 5.6
2020-Jan-21 19:56 294 2 gusting 6 5.6
2020-Jan-21 19:47 275 2 gusting 5 5.0
2020-Jan-21 19:38 116 1 gusting 6 5.0
2020-Jan-21 19:29 097 1 gusting 6 5.0
2020-Jan-21 19:20 330 1 gusting 4 5.0
2020-Jan-21 19:11 033 2 gusting 6 5.0
2020-Jan-21 19:02 068 1 gusting 6 5.0
2020-Jan-21 18:53 008 1 gusting 8 5.0
2020-Jan-21 18:44 040 1 gusting 4 5.0
2020-Jan-21 18:35 349 1 gusting 4 5.0
2020-Jan-21 18:26 037 1 gusting 4 5.0
2020-Jan-21 18:17 047 1 gusting 6 5.0
2020-Jan-21 18:08 056 1 gusting 5 5.0
2020-Jan-21 17:59 087 1 gusting 5 5.0
2020-Jan-21 17:50 041 1 gusting 6 5.0
2020-Jan-21 17:41 083 5.0
2020-Jan-21 17:32 051 5.0
2020-Jan-21 17:23 089 0 gusting 2 5.0
2020-Jan-21 17:14 084 5.0
2020-Jan-21 17:05 081 5.0
2020-Jan-21 16:56 054 5.0
2020-Jan-21 16:47 024 0 gusting 2 5.6
2020-Jan-21 16:38 033 5.6
2020-Jan-21 16:29 029 0 gusting 1 5.6
2020-Jan-21 16:20 039 1 gusting 2 5.6
2020-Jan-21 16:11 033 0 gusting 5 5.6
2020-Jan-21 16:02 069 0 gusting 4 5.6
2020-Jan-21 15:53 080 0 gusting 6 5.6
2020-Jan-21 15:44 090 0 gusting 1 6.1
2020-Jan-21 15:35 063 1 gusting 4 6.1
2020-Jan-21 15:26 056 1 gusting 2 6.7
2020-Jan-21 15:17 071 1 gusting 3 6.7
2020-Jan-21 15:08 057 1 gusting 8 7.2
2020-Jan-21 14:59 068 1 gusting 8 7.2
2020-Jan-21 14:50 026 1 gusting 5 7.2
2020-Jan-21 14:41 060 1 gusting 5 7.8
2020-Jan-21 14:32 032 1 gusting 10 7.8
2020-Jan-21 14:23 034 1 gusting 6 7.8
2020-Jan-21 14:14 087 1 gusting 6 7.8
2020-Jan-21 14:05 100 1 gusting 6 7.8
2020-Jan-21 13:56 056 1 gusting 4 7.8
2020-Jan-21 13:47 036 1 gusting 6 7.8
2020-Jan-21 13:38 046 1 gusting 6 7.2
2020-Jan-21 13:29 061 1 gusting 6 7.2
2020-Jan-21 13:20 041 1 gusting 6 7.2
2020-Jan-21 13:11 059 1 gusting 6 7.2
2020-Jan-21 13:02 030 1 gusting 4 7.2
2020-Jan-21 12:53 093 0 gusting 3 7.2
2020-Jan-21 12:44 053 1 gusting 5 7.2
2020-Jan-21 12:35 064 1 gusting 4 6.7
2020-Jan-21 12:26 015 1 gusting 1 6.7
2020-Jan-21 12:17 015 1 gusting 1 6.7
2020-Jan-21 12:08 054 1 gusting 8 6.7
2020-Jan-21 11:59 056 1 gusting 5 6.7
2020-Jan-21 11:50 042 2 gusting 8 6.7
2020-Jan-21 11:41 042 2 gusting 8 6.7
2020-Jan-21 11:32 045 1 gusting 8 6.7
2020-Jan-21 11:23 072 1 gusting 5 6.7
2020-Jan-21 11:14 062 1 gusting 10 6.7
2020-Jan-21 11:05 040 1 gusting 6 6.1
2020-Jan-21 10:56 041 1 gusting 6 6.1
2020-Jan-21 10:47 037 1 gusting 6 5.6
2020-Jan-21 10:38 038 1 gusting 8 5.6
2020-Jan-21 10:29 050 1 gusting 1 5.6
2020-Jan-21 10:20 053 0 gusting 6 5.0
2020-Jan-21 10:11 101 0 gusting 2 5.0
2020-Jan-21 10:02 078 0 gusting 6 5.0
2020-Jan-21 09:53 074 0 gusting 6 5.0
2020-Jan-21 09:44 068 1 gusting 2 5.0
2020-Jan-21 09:35 061 1 gusting 5 5.0
2020-Jan-21 09:26 111 1 gusting 4 5.0
2020-Jan-21 09:17 038 1 gusting 8 5.6
2020-Jan-21 09:08 027 2 gusting 6 5.6
2020-Jan-21 08:59 056 1 gusting 5 6.1
2020-Jan-21 08:50 015 1 gusting 6 5.6
2020-Jan-21 08:41 014 1 gusting 6 5.6
2020-Jan-21 08:32 054 1 gusting 2 5.6
2020-Jan-21 08:23 043 1 gusting 5 5.6
2020-Jan-21 08:14 043 1 gusting 5 5.6
2020-Jan-21 08:05 052 1 gusting 6 5.0
2020-Jan-21 07:56 052 1 gusting 6 5.0
2020-Jan-21 07:47 059 1 gusting 4 5.0
2020-Jan-21 07:38 032 1 gusting 4 5.0
2020-Jan-21 07:29 027 1 gusting 5 5.0
2020-Jan-21 07:20 091 1 gusting 5 5.0
2020-Jan-21 07:11 038 2 gusting 6 5.0
2020-Jan-21 07:02 027 2 gusting 7 5.0
2020-Jan-21 06:53 034 1 gusting 8 5.0
2020-Jan-21 06:44 037 1 gusting 4 5.6
2020-Jan-21 06:35 013 1 gusting 1 5.6
2020-Jan-21 06:26 032 2 gusting 5 5.6
2020-Jan-21 06:17 015 1 gusting 6 5.6
2020-Jan-21 06:08 351 1 gusting 5 5.6
2020-Jan-21 05:59 044 1 gusting 2 5.6
2020-Jan-21 05:50 187 1 gusting 4 5.6
2020-Jan-21 05:41 202 1 gusting 4 5.6
2020-Jan-21 05:32 053 2 gusting 5 5.6
2020-Jan-21 05:23 068 2 gusting 5 5.6
2020-Jan-21 05:14 045 1 gusting 6 5.6
2020-Jan-21 05:05 064 1 gusting 6 5.0
2020-Jan-21 04:56 075 1 gusting 5 5.0
2020-Jan-21 04:47 052 0 gusting 6 5.0
2020-Jan-21 04:38 069 0 gusting 6 5.0
2020-Jan-21 04:29 051 0 gusting 3 5.0
2020-Jan-21 04:20 061 0 gusting 4 5.0
2020-Jan-21 04:11 040 1 gusting 9 4.4
2020-Jan-21 04:02 058 1 gusting 9 4.4
2020-Jan-21 03:53 057 0 gusting 6 4.4
2020-Jan-21 03:44 070 0 gusting 6 4.4
2020-Jan-21 03:35 059 1 gusting 5 4.4
2020-Jan-21 03:26 015 1 gusting 1 4.4
2020-Jan-21 03:17 085 1 gusting 4 5.0
2020-Jan-21 03:08 051 1 gusting 6 5.0
2020-Jan-21 02:59 036 1 gusting 2 4.4
2020-Jan-21 02:50 037 1 gusting 2 4.4
2020-Jan-21 02:41 032 0 gusting 6 4.4
2020-Jan-21 02:32 045 0 gusting 2 5.0
2020-Jan-21 02:23 057 1 gusting 5 5.0
2020-Jan-21 02:14 064 0 gusting 5 5.0
2020-Jan-21 02:05 274 0 gusting 5 5.0
2020-Jan-21 01:56 063 1 gusting 2 5.0
2020-Jan-21 01:47 053 1 gusting 2 5.0
2020-Jan-21 01:38 064 1 gusting 7 5.0
2020-Jan-21 01:29 064 1 gusting 7 5.0
2020-Jan-21 01:20 053 1 gusting 6 5.0
2020-Jan-21 01:11 009 2 gusting 8 5.0
2020-Jan-21 01:02 037 2 gusting 6 5.6
2020-Jan-21 00:53 028 1 gusting 10 5.6
2020-Jan-21 00:44 055 2 gusting 5 5.6
2020-Jan-21 00:35 044 2 gusting 8 5.0
2020-Jan-21 00:26 037 2 gusting 8 5.0
2020-Jan-21 00:17 041 2 gusting 11 5.6
2020-Jan-21 00:08 044 2 gusting 11 5.6
2020-Jan-20 23:59 043 2 gusting 8 5.6
2020-Jan-20 23:50 032 1 gusting 8 5.6
2020-Jan-20 23:41 026 1 gusting 5 5.6
2020-Jan-20 23:32 330 0 gusting 5 5.6
2020-Jan-20 23:23 069 1 gusting 5 5.6
2020-Jan-20 23:14 068 0 gusting 6 5.0
2020-Jan-20 23:05 185 1 gusting 6 5.0
2020-Jan-20 22:56 051 1 gusting 4 5.0
2020-Jan-20 22:47 058 1 gusting 5 5.6
2020-Jan-20 22:38 046 1 gusting 2 5.6
2020-Jan-20 22:29 055 1 gusting 1 5.6
2020-Jan-20 22:20 032 1 gusting 6 5.6
2020-Jan-20 22:11 052 1 gusting 8 5.6
2020-Jan-20 22:02 131 1 gusting 6 5.6
2020-Jan-20 21:53 325 0 gusting 6 5.6
2020-Jan-20 21:44 080 2 gusting 6 5.6
2020-Jan-20 21:35 049 1 gusting 6 5.6
2020-Jan-20 21:26 041 0 gusting 6 5.6
2020-Jan-20 21:17 106 0 gusting 2 5.6
2020-Jan-20 21:08 104 0 gusting 2 5.6
2020-Jan-20 20:59 078 1 gusting 4 5.6
2020-Jan-20 20:50 035 1 gusting 5 5.6
2020-Jan-20 20:41 033 0 gusting 5 5.6
2020-Jan-20 20:32 322 1 gusting 4 5.6
2020-Jan-20 20:23 053 2 gusting 5 5.6
2020-Jan-20 20:14 073 1 gusting 3 5.6
2020-Jan-20 20:05 034 2 gusting 9 5.6
2020-Jan-20 19:56 032 2 gusting 7 5.6
2020-Jan-20 19:47 049 2 gusting 7 5.6
2020-Jan-20 19:38 046 2 gusting 6 5.6
2020-Jan-20 19:29 044 2 gusting 6 5.6
2020-Jan-20 19:20 011 2 gusting 6 5.6
2020-Jan-20 19:11 017 2 gusting 9 5.6
2020-Jan-20 19:02 061 2 gusting 5 5.6
2020-Jan-20 18:53 327 2 gusting 6 5.0
2020-Jan-20 18:44 040 2 gusting 6 5.0
2020-Jan-20 18:35 039 2 gusting 6 5.6
2020-Jan-20 18:26 039 2 gusting 10 5.6
2020-Jan-20 18:17 025 2 gusting 5 5.6
2020-Jan-20 18:08 040 2 gusting 6 5.6
2020-Jan-20 17:59 018 2 gusting 6 5.6
2020-Jan-20 17:50 024 2 gusting 6 5.6
2020-Jan-20 17:41 003 3 gusting 9 5.6
2020-Jan-20 17:32 011 2 gusting 6 5.6
2020-Jan-20 17:23 031 3 gusting 5 5.6
2020-Jan-20 17:14 042 2 gusting 2 5.6
2020-Jan-20 17:05 037 2 gusting 6 5.6
2020-Jan-20 16:56 042 2 gusting 6 5.6
2020-Jan-20 16:47 030 2 gusting 4 5.6
2020-Jan-20 16:38 066 3 gusting 11 6.1
2020-Jan-20 16:29 039 2 gusting 11 6.1
2020-Jan-20 16:20 090 1 gusting 4 6.1
2020-Jan-20 16:11 085 2 gusting 1 6.1
2020-Jan-20 16:02 085 2 gusting 1 6.1
2020-Jan-20 15:53 031 1 gusting 7 6.1
2020-Jan-20 15:44 047 1 gusting 6 6.1
2020-Jan-20 15:35 056 1 gusting 1 6.1
2020-Jan-20 15:26 067 0 gusting 5 6.1
2020-Jan-20 15:17 028 0 gusting 0 6.1
2020-Jan-20 15:08 054 1 gusting 4 6.1
2020-Jan-20 14:59 054 1 gusting 11 6.1
2020-Jan-20 14:50 054 0 gusting 5 6.1
2020-Jan-20 14:41 038 1 gusting 5 6.1
2020-Jan-20 14:32 045 1 gusting 5 5.6
2020-Jan-20 14:23 358 0 gusting 5 5.6
2020-Jan-20 14:14 350 0 gusting 6 5.6
2020-Jan-20 14:05 004 0 gusting 6 5.6
2020-Jan-20 13:56 028 1 gusting 5 5.6
2020-Jan-20 13:47 062 1 gusting 6 5.6
2020-Jan-20 13:38 055 1 gusting 5 5.6
2020-Jan-20 13:29 089 0 gusting 4 6.1
2020-Jan-20 13:20 050 1 gusting 6 6.1
2020-Jan-20 13:11 101 1 gusting 11 6.1
2020-Jan-20 13:02 069 1 gusting 11 6.1